EW2549 Weather Reports


time (UTC)temp
C
wind
direction
speed
KPH
gust
KPH
rain 1hr
cm
rain 24hr
cm
rain mn
cm
humidity
%
barometer
mb
20260506193057 7 128 0.0 0.0 0.30 0.69 0.51 57 1022.3
20260506191554 8 128 0.0 0.0 0.23 0.58 0.41 63 1022.4
20260506190050 6 71 0.0 0.0 0.15 0.48 0.30 76 1022.6
20260506184547 5 86 0.0 0.0 0.10 0.43 0.23 82 1022.8
20260506183058 2 86 0.0 0.0 0.10 0.41 0.20 88 1023.1
20260506181547 2 83 0.0 0.0 0.08 0.38 0.18 89 1023.1
20260506180040 2 45 0.0 0.0 0.08 0.36 0.15 90 1023.1
20260506174536 1 92 0.0 0.0 0.08 0.33 0.13 92 1023.0
20260506173031 0 324 0.0 0.0 0.05 0.30 0.10 92 1022.9
20260506163022 0 350 0.0 6.4 0.05 0.25 0.05 93 1021.8
20260506161523 0 319 0.0 11.3 0.03 0.23 0.03 94 1021.6
20260506160117 0 307 0.0 8.0 0.03 0.23 0.03 94 1021.6
20260506154517 0 346 0.0 8.0 0.00 0.20 0.00 94 1021.4
20260506153015 0 317 0.0 11.3 0.00 0.20 0.00 94 1021.4
20260506151520 0 327 0.0 12.9 0.00 0.20 0.00 94 1021.2
20260506150024 0 321 0.0 4.8 0.00 0.20 0.00 94 1021.1
20260506144512 0 304 0.0 0.0 0.00 0.23 0.00 94 1021.0
20260506143033 0 355 0.0 0.0 0.00 0.23 0.00 94 1020.9
20260506141510 0 346 0.0 0.0 0.00 0.23 0.00 94 1020.7
20260506140010 0 346 0.0 0.0 0.00 0.23 0.00 94 1020.7
20260506134506 0 346 0.0 0.0 0.00 0.25 0.00 94 1020.6
20260506133006 0 346 0.0 0.0 0.00 0.25 0.00 94 1020.4
20260506131502 0 346 0.0 0.0 0.00 0.25 0.00 94 1020.1
20260506130138 -1 346 0.0 0.0 0.00 0.25 0.00 94 1019.8
20260506124558 -1 346 0.0 0.0 0.00 0.28 0.00 94 1019.3
20260506123057 -1 346 0.0 0.0 0.00 0.28 0.00 94 1019.1
20260506121557 -1 346 0.0 0.0 0.00 0.28 0.00 94 1019.2
20260506120059 -1 346 0.0 0.0 0.00 0.28 0.00 94 1019.1
20260506114553 -1 347 0.0 0.0 0.00 0.38 0.00 94 1018.8
20260506113101 -1 346 0.0 0.0 0.00 0.38 0.00 94 1018.7
20260506111553 -1 346 0.0 0.0 0.00 0.38 0.00 94 1018.6
20260506110059 -1 346 0.0 0.0 0.00 0.38 0.00 94 1018.2
20260506104600 -1 346 0.0 0.0 0.00 0.43 0.00 94 1018.3
20260506103049 -1 346 0.0 0.0 0.00 0.43 0.00 94 1018.1
20260506101555 -1 346 0.0 0.0 0.00 0.43 0.00 94 1018.4
20260506100048 -1 346 0.0 0.0 0.00 0.43 0.00 94 1018.4
20260506093047 -1 346 0.0 0.0 0.00 0.46 0.00 94 1018.0
20260506091544 -1 347 0.0 0.0 0.00 0.46 0.00 94 1017.9
20260506090044 -1 347 0.0 0.0 0.00 0.46 0.00 94 1017.8
20260506084547 0 346 0.0 0.0 0.00 0.46 0.00 94 1017.8
20260506083042 0 346 0.0 0.0 0.00 0.46 0.00 94 1017.8
20260506081541 0 346 0.0 0.0 0.00 0.46 0.00 94 1017.6
20260506073043 0 342 0.0 0.0 0.00 0.46 0.00 94 1017.4
20260506071543 0 341 0.0 0.0 0.00 0.46 0.00 94 1017.4
20260506061533 0 341 0.0 0.0 0.00 0.46 0.00 93 1016.8
20260506044526 0 340 0.0 0.0 0.03 0.48 0.46 93 1016.0
20260506043025 0 340 0.0 0.0 0.00 0.46 0.43 93 1016.1
20260506041529 0 340 0.0 0.0 0.00 0.46 0.43 93 1016.0
20260506040025 0 340 0.0 0.0 0.00 0.46 0.43 93 1015.7
20260506034519 0 340 0.0 0.0 0.00 0.66 0.43 93 1015.5
20260506033026 0 340 0.0 0.0 0.00 0.66 0.43 93 1015.4
20260506031522 0 340 0.0 0.0 0.00 0.66 0.43 93 1015.1
20260506030018 0 340 0.0 0.0 0.00 0.66 0.43 93 1014.6
20260506024511 0 340 0.0 0.0 0.03 0.71 0.43 93 1014.3
20260506023109 0 340 0.0 0.0 0.03 0.71 0.43 93 1014.1
20260506021508 0 340 0.0 0.0 0.03 0.71 0.43 93 1013.6
20260506020006 0 340 0.0 0.0 0.03 0.71 0.43 93 1013.2
20260506014509 0 340 0.0 0.0 0.00 0.71 0.41 93 1012.9
20260506013007 0 345 0.0 4.8 0.00 0.71 0.41 93 1012.8
20260506011502 0 345 0.0 0.0 0.00 0.71 0.41 93 1012.4
20260506010105 0 340 0.0 3.2 0.00 0.71 0.41 93 1012.2
20260506004600 0 340 0.0 0.0 0.00 0.71 0.41 92 1012.1
20260506003057 0 24 0.0 0.0 0.00 0.71 0.41 92 1011.9
20260506001617 0 345 0.0 0.0 0.00 0.71 0.41 92 1011.9
20260506000055 0 338 0.0 0.0 0.00 0.71 0.41 92 1011.5
20260505234553 0 331 0.0 0.0 0.00 0.71 0.41 92 1011.3
20260505233055 0 329 0.0 0.0 0.00 0.71 0.41 92 1011.0
20260505231553 0 333 0.0 0.0 0.00 0.71 0.41 91 1010.7
20260505230047 0 316 1.6 9.7 0.00 0.71 0.41 91 1010.7
20260505224548 0 360 0.0 16.1 0.03 0.71 0.41 90 1010.8
20260505223046 1 329 1.6 9.7 0.05 0.71 0.41 90 1010.2
20260505221544 1 10 1.6 12.9 0.08 0.71 0.41 90 1009.5
20260505220042 1 318 0.0 11.3 0.10 0.71 0.41 89 1009.7
20260505214554 2 348 0.0 9.7 0.08 0.69 0.38 89 1009.2
20260505213051 3 355 0.0 6.4 0.05 0.66 0.36 90 1009.1
20260505211536 3 344 0.0 0.0 0.05 0.64 0.33 90 1008.9
20260505210036 3 24 0.0 0.0 0.03 0.61 0.30 91 1008.9
20260505204538 3 9 0.0 0.0 0.03 0.61 0.30 91 1009.1
20260505203043 3 323 0.0 0.0 0.03 0.61 0.30 91 1009.3